[[{"header":{"parameterUnit":"m.s-1","parameterCategory":1,"la1":30.2991,"la2":30.254,"lo1":-89.0895,"lo2":-89.0444,"dy":0.0017,"dx":0.0017,"nx":28,"ny":28,"refTime":"2023-07-27T09:00:00:Z","depth":0,"parameterNumber":2,"parameterNumberName":"U-component_of_WINDS"},"data":[0,0,0,0,0,0,0,0,0,0,0,0,0,0,0,0,0,0,0,0,0,0,0,0,0,0,0,0,0,0,0,0,0,0,0,0,0,0,0,0,0,0,0,0,0,0,0,0,0,0,0,0,0,0,0,0,0,0,-0.6339,-0.6337,0,-0.6215,-0.6214,-0.6212,-0.6195,-0.6196,-0.6197,-0.6198,-0.607,-0.6066,-0.6061,0,0,0,0,0,0,0,0,0,0,0,0,0,-0.6558,-0.6554,-0.6339,-0.6337,-0.6336,-0.6216,-0.6214,-0.6212,-0.6194,-0.6196,-0.6197,-0.6199,-0.6071,-0.6066,-0.6061,0,0,0,0,0,0,0,0,0,0,0,0,0,-0.6452,-0.6553,-0.6339,-0.6312,-0.6309,-0.6216,-0.6214,-0.6212,-0.6194,-0.6196,-0.6198,-0.6199,-0.6073,-0.6067,-0.606,-0.5984,0,0,-0.6039,-0.6037,0,0,0,0,0,0,0,0,-0.6458,-0.6444,-0.6318,-0.6314,-0.631,-0.6222,-0.6244,-0.6135,-0.6194,-0.6238,-0.6198,-0.62,-0.6119,-0.6109,-0.6082,-0.5978,-0.5973,-0.6039,-0.6035,-0.6032,-0.603,0,0,0,0,0,0,0,-0.6465,-0.6449,-0.629,-0.6316,-0.6311,-0.6306,-0.6293,-0.6224,-0.617,-0.6234,-0.6232,-0.6218,-0.6117,-0.6088,-0.6079,-0.5971,-0.6039,-0.6033,-0.6029,-0.6026,-0.5801,-0.5799,0,0,0,0,0,0,-0.6478,-0.6455,-0.6294,-0.6286,-0.639,-0.6301,-0.6286,-0.6249,-0.6171,-0.6161,-0.6217,-0.6218,-0.6099,-0.6086,-0.6074,-0.5981,-0.6032,-0.6026,-0.6022,-0.5803,-0.5801,-0.5798,0,0,0,0,0,0,-0.6482,-0.6463,-0.6299,-0.637,-0.6349,-0.6295,-0.6253,-0.6245,-0.6216,-0.6158,-0.6148,-0.6197,-0.61,-0.6083,-0.6007,-0.5977,-0.6023,-0.6017,-0.5805,-0.5802,-0.5799,-0.5795,0,0,0,0,0,0,-0.6489,-0.6465,-0.6436,-0.637,-0.6345,-0.6234,-0.6251,-0.6242,-0.6205,-0.6205,-0.6137,-0.6127,-0.61,-0.6017,-0.6001,-0.5968,-0.6011,-0.5808,-0.5804,-0.58,-0.5798,-0.5792,-0.5788,0,0,0,0,0,-0.6497,-0.6439,-0.6435,-0.6415,-0.6308,-0.6233,-0.6218,-0.6189,-0.6203,-0.6173,-0.6136,-0.6129,-0.5983,-0.601,-0.5991,-0.5956,-0.581,-0.5805,-0.5801,-0.58,-0.5794,-0.5788,0,0,0,0,0,0,-0.6502,-0.643,-0.6424,-0.6343,-0.6295,-0.623,-0.6191,-0.6182,-0.6128,-0.613,-0.6095,-0.608,-0.6005,-0.5973,-0.6004,-0.5879,-0.5897,-0.5889,-0.5903,-0.5897,-0.5892,-0.5901,-0.6006,0,0,0,0,0,-0.6494,-0.644,-0.6379,-0.6314,-0.629,-0.6245,-0.6211,-0.6192,-0.614,-0.6119,-0.6076,-0.6025,-0.5967,-0.593,-0.5874,-0.5793,-0.5778,-0.576,-0.5755,-0.5751,-0.5744,-0.57,-0.5692,-0.5784,-0.5784,-0.5784,0,0,-0.6477,-0.6431,-0.6398,-0.6314,-0.6274,-0.6218,-0.6227,-0.6168,-0.6126,-0.6109,-0.6035,-0.6002,-0.5943,-0.5865,-0.5828,-0.5835,-0.5716,-0.5745,-0.5743,-0.5738,-0.5695,-0.5686,-0.5679,-0.5781,-0.5781,-0.5782,0,0,-0.6417,-0.6376,-0.6318,-0.6278,-0.6217,-0.6188,-0.6174,-0.6111,-0.6088,-0.6014,-0.6001,-0.595,-0.5852,-0.5811,-0.5777,-0.5703,-0.5695,-0.5685,-0.5659,-0.5617,-0.561,-0.5603,-0.5578,-0.5569,-0.5679,-0.5679,-0.5678,0,-0.6403,-0.6319,-0.6289,-0.623,-0.6194,-0.6177,-0.6118,-0.608,-0.6004,-0.598,-0.5989,-0.5866,-0.5825,-0.5737,-0.5719,-0.5692,-0.5675,-0.5693,-0.5613,-0.5606,-0.56,-0.5575,-0.5565,-0.5678,-0.5678,-0.5678,-0.5678,0,-0.6305,-0.6247,-0.6207,-0.6135,-0.6094,-0.6036,-0.5997,-0.5959,-0.5944,-0.5914,-0.5839,-0.5789,-0.5723,-0.5701,-0.5685,-0.5611,-0.5617,-0.562,-0.5638,-0.5591,-0.5567,-0.5557,-0.5677,-0.5677,-0.5677,-0.5677,0,0,-0.6245,-0.6158,-0.6144,-0.6112,-0.6044,-0.5999,-0.5939,-0.5876,-0.5844,-0.5793,-0.5742,-0.566,-0.5663,-0.5625,-0.5604,-0.5567,-0.5513,-0.5575,-0.5573,-0.5566,-0.543,-0.5428,-0.5418,-0.5508,-0.5506,-0.5504,-0.5435,0,-0.6178,-0.6072,-0.6044,-0.5955,-0.5901,-0.5885,-0.5834,-0.5787,-0.5757,-0.5707,-0.5674,-0.5617,-0.5625,-0.5602,-0.5564,-0.5528,-0.5485,-0.5532,-0.5461,-0.5459,-0.5477,-0.5405,-0.5403,-0.534,-0.5425,-0.5424,-0.5422,0,-0.6085,-0.6033,-0.5938,-0.5879,-0.5856,-0.581,-0.575,-0.5702,-0.5649,-0.563,-0.5588,-0.5572,-0.551,-0.553,-0.5445,-0.5477,-0.5447,-0.5425,-0.5421,-0.5414,-0.5438,-0.5397,-0.5319,-0.531,-0.5407,-0.5409,-0.541,0,-0.6052,-0.5958,-0.5889,-0.5862,-0.5791,-0.5759,-0.5728,-0.5676,-0.564,-0.5588,-0.5564,-0.5505,-0.5473,-0.5427,-0.5395,-0.5413,-0.5313,-0.533,-0.5296,-0.5297,-0.5276,-0.5277,-0.5193,-0.5255,-0.5255,-0.5255,-0.5255,0,-0.598,-0.5923,-0.5874,-0.5832,-0.5768,-0.5736,-0.5673,-0.5641,-0.5596,-0.5548,-0.553,-0.5485,-0.5445,-0.5395,-0.5369,-0.5303,-0.5288,-0.5272,-0.5266,-0.5274,-0.5276,-0.5253,-0.5257,-0.5252,-0.5253,-0.5254,-0.5254,0,-0.5932,-0.5897,-0.5821,-0.5761,-0.5744,-0.57,-0.5648,-0.5606,-0.5577,-0.5516,-0.55,-0.5453,-0.5393,-0.5357,-0.528,-0.5263,-0.5191,-0.5186,-0.5209,-0.5206,-0.5174,-0.5178,-0.5073,-0.5058,-0.5129,-0.5128,-0.5128,0,-0.5889,-0.5845,-0.578,-0.5747,-0.5716,-0.5662,-0.5626,-0.5593,-0.5556,-0.5492,-0.5459,-0.5398,-0.5348,-0.5253,-0.5212,-0.5154,-0.5148,-0.5115,-0.5139,-0.5149,-0.5149,-0.5152,-0.5148,-0.5111,-0.5111,-0.511,-0.511,0,-0.5817,-0.5802,-0.575,-0.5693,-0.565,-0.5603,-0.5556,-0.553,-0.5489,-0.5448,-0.5387,-0.5348,-0.5271,-0.5211,-0.515,-0.5117,-0.5107,-0.5103,-0.5092,-0.51,-0.5115,-0.5108,-0.5199,-0.5105,-0.5106,-0.5106,-0.5106,-0.5107,-0.5771,-0.5732,-0.568,-0.5624,-0.5585,-0.5542,-0.5501,-0.5466,-0.5415,-0.535,-0.5334,-0.527,-0.5219,-0.5136,-0.5102,-0.5052,-0.5057,-0.5041,-0.5037,-0.5034,-0.5034,-0.5123,-0.504,-0.504,-0.5041,-0.5041,-0.5041,0,-0.5699,-0.5665,-0.5613,-0.5549,-0.5505,-0.5499,-0.5447,-0.541,-0.5355,-0.5308,-0.5259,-0.519,-0.5132,-0.5087,-0.5028,-0.4996,-0.499,-0.4982,-0.4984,-0.4977,-0.5032,-0.5048,-0.4988,-0.4988,-0.4988,-0.4988,-0.4988,-0.4988,-0.5656,-0.559,-0.5569,-0.5483,-0.545,-0.5388,-0.5359,-0.5319,-0.5282,-0.5206,-0.5158,-0.5129,-0.5083,-0.5021,-0.4967,-0.4956,-0.4935,-0.4928,-0.4916,-0.4967,-0.4973,-0.4979,-0.4994,-0.4924,-0.4923,-0.4865,-0.4865,-0.4864]},{"header":{"parameterUnit":"m.s-1","parameterCategory":1,"la1":30.2991,"la2":30.254,"lo1":-89.0895,"lo2":-89.0444,"dy":0.0017,"dx":0.0017,"nx":28,"ny":28,"refTime":"2023-07-27T09:00:00:Z","depth":0,"parameterNumber":3,"parameterNumberName":"V-component_of_WINDS"},"data":[0,0,0,0,0,0,0,0,0,0,0,0,0,0,0,0,0,0,0,0,0,0,0,0,0,0,0,0,0,0,0,0,0,0,0,0,0,0,0,0,0,0,0,0,0,0,0,0,0,0,0,0,0,0,0,0,0,0,1.5522,1.5522,0,1.5518,1.5518,1.5518,1.5507,1.5506,1.5506,1.5506,1.55,1.5501,1.5501,0,0,0,0,0,0,0,0,0,0,0,0,0,1.5515,1.5515,1.5522,1.5522,1.5522,1.5518,1.5518,1.5518,1.5507,1.5506,1.5506,1.5506,1.55,1.5501,1.5501,0,0,0,0,0,0,0,0,0,0,0,0,0,1.5515,1.5515,1.5522,1.5516,1.5515,1.5518,1.5518,1.5518,1.5507,1.5506,1.5506,1.5506,1.55,1.5501,1.5501,1.5509,0,0,1.5501,1.5501,0,0,0,0,0,0,0,0,1.5515,1.5515,1.5516,1.5516,1.5515,1.5513,1.5514,1.5515,1.5507,1.551,1.5506,1.5505,1.5505,1.5504,1.5505,1.5509,1.5509,1.5501,1.5501,1.5501,1.5501,0,0,0,0,0,0,0,1.5515,1.5516,1.552,1.5516,1.5516,1.5512,1.5511,1.5514,1.5509,1.5509,1.5509,1.5508,1.5504,1.5505,1.5504,1.5509,1.5501,1.5501,1.5501,1.5501,1.5518,1.5518,0,0,0,0,0,0,1.5516,1.5516,1.5521,1.552,1.5514,1.5512,1.5512,1.5514,1.5509,1.5508,1.5509,1.5508,1.5504,1.5504,1.5504,1.5513,1.5501,1.5501,1.5502,1.5518,1.5518,1.5518,0,0,0,0,0,0,1.5516,1.5517,1.5521,1.5518,1.5518,1.5513,1.5515,1.5514,1.5514,1.5509,1.5508,1.551,1.5504,1.5504,1.5508,1.5512,1.5502,1.5502,1.5517,1.5518,1.5518,1.553,0,0,0,0,0,0,1.5516,1.5517,1.5521,1.5518,1.5518,1.5525,1.5515,1.5514,1.5515,1.5514,1.551,1.5509,1.5504,1.5508,1.5508,1.5512,1.5502,1.5517,1.5517,1.5518,1.553,1.5531,1.5533,0,0,0,0,0,1.5516,1.5525,1.5522,1.5522,1.5523,1.5526,1.5526,1.552,1.5515,1.5519,1.5515,1.5509,1.5512,1.5508,1.5508,1.5513,1.5516,1.5517,1.5518,1.5529,1.5531,1.5533,0,0,0,0,0,0,1.5529,1.5524,1.5521,1.5529,1.5528,1.5524,1.5528,1.5523,1.5523,1.5522,1.5514,1.5514,1.5518,1.5516,1.5512,1.552,1.5513,1.5514,1.5521,1.5523,1.5525,1.5525,1.5502,0,0,0,0,0,1.5533,1.5536,1.5531,1.5539,1.5539,1.5533,1.5534,1.553,1.5528,1.5528,1.5524,1.5522,1.5522,1.5523,1.5523,1.5529,1.5527,1.5532,1.5534,1.5535,1.5536,1.5537,1.5538,1.5521,1.5521,1.5521,0,0,1.554,1.5538,1.5541,1.5542,1.554,1.5542,1.5533,1.5536,1.5537,1.5528,1.5531,1.5528,1.5525,1.553,1.5532,1.5528,1.554,1.5536,1.5537,1.5537,1.5538,1.5539,1.5541,1.5521,1.5521,1.5521,0,0,1.5555,1.5555,1.556,1.5559,1.5557,1.5553,1.5554,1.5551,1.5549,1.5552,1.5544,1.5545,1.5546,1.5543,1.5542,1.5554,1.5548,1.5555,1.5563,1.5564,1.5565,1.5566,1.5569,1.5571,1.5555,1.5555,1.5555,0,1.5565,1.5569,1.5564,1.5567,1.5566,1.5558,1.5563,1.5561,1.5559,1.5559,1.5555,1.5555,1.5552,1.5555,1.5558,1.5558,1.5558,1.5555,1.5566,1.5567,1.5568,1.557,1.5572,1.5556,1.5556,1.5556,1.5556,0,1.558,1.5583,1.5587,1.5585,1.5585,1.5589,1.5583,1.5584,1.5579,1.5575,1.5577,1.5574,1.5572,1.5573,1.5569,1.5575,1.5572,1.5567,1.556,1.557,1.5572,1.5574,1.5557,1.5557,1.5557,1.5556,0,0,1.5604,1.5598,1.5599,1.5598,1.5594,1.5595,1.5598,1.5597,1.5596,1.5595,1.5596,1.5596,1.5591,1.5589,1.5584,1.5586,1.5593,1.558,1.558,1.5582,1.5598,1.5601,1.5603,1.559,1.559,1.559,1.5598,0,1.5617,1.5622,1.5616,1.5621,1.5623,1.5614,1.5616,1.5613,1.5609,1.5609,1.5604,1.5604,1.5598,1.5597,1.5598,1.5592,1.5596,1.5592,1.5589,1.5589,1.5589,1.5604,1.5608,1.5616,1.5599,1.5599,1.5599,0,1.5633,1.5632,1.5638,1.5632,1.5632,1.5634,1.5631,1.5632,1.5628,1.5624,1.5622,1.5616,1.5617,1.561,1.561,1.5607,1.5605,1.5602,1.5602,1.5601,1.5594,1.5602,1.5618,1.5619,1.5601,1.5601,1.56,0,1.5647,1.5648,1.565,1.5649,1.5643,1.5645,1.5642,1.5638,1.5637,1.5634,1.5633,1.563,1.5628,1.5626,1.5619,1.5615,1.5619,1.5612,1.5615,1.5615,1.5616,1.5616,1.563,1.5616,1.5616,1.5616,1.5616,0,1.5662,1.5665,1.5657,1.5658,1.5661,1.5654,1.5657,1.5653,1.5649,1.5649,1.5641,1.5641,1.5632,1.563,1.5625,1.5624,1.5624,1.562,1.5619,1.5621,1.5621,1.5619,1.5618,1.5616,1.5616,1.5616,1.5616,0,1.5679,1.5673,1.5675,1.5669,1.5668,1.567,1.5664,1.5665,1.566,1.566,1.5659,1.5651,1.5649,1.5642,1.5637,1.5633,1.5634,1.5632,1.5636,1.5634,1.5637,1.5637,1.5651,1.5652,1.5638,1.5638,1.5638,0,1.5688,1.569,1.5684,1.5684,1.5681,1.5681,1.5679,1.5672,1.5671,1.5666,1.5666,1.5663,1.566,1.5657,1.565,1.5646,1.5643,1.5648,1.5642,1.5643,1.5641,1.5641,1.564,1.5649,1.5649,1.5649,1.5649,0,1.5704,1.5701,1.57,1.5697,1.5696,1.5694,1.5691,1.569,1.5682,1.5681,1.5678,1.5676,1.5671,1.5667,1.5662,1.5658,1.5652,1.5651,1.5651,1.5653,1.5655,1.5653,1.5638,1.5651,1.5651,1.5651,1.5651,1.565,1.5716,1.5717,1.5713,1.5711,1.5708,1.5705,1.5705,1.57,1.5698,1.5694,1.569,1.5687,1.5681,1.5674,1.567,1.5667,1.5664,1.5665,1.5665,1.5665,1.5665,1.5656,1.5666,1.5666,1.5666,1.5666,1.5666,0,1.5731,1.5728,1.5726,1.5722,1.5721,1.5715,1.5711,1.571,1.5708,1.5704,1.5701,1.5697,1.5693,1.5686,1.5681,1.568,1.5677,1.5679,1.5679,1.5678,1.5669,1.5669,1.5682,1.5682,1.5682,1.5682,1.5682,1.5682,1.5739,1.5739,1.5735,1.5734,1.573,1.5728,1.5726,1.5723,1.5719,1.5716,1.5713,1.5708,1.5702,1.5697,1.5692,1.569,1.5688,1.5691,1.5688,1.568,1.5678,1.5677,1.5677,1.5691,1.5691,1.5697,1.5697,1.5697]}]]